Regional Weather Roundup
Issued by NWS

Home | Current Version | Previous Version | Graphics & Text | Print | Product List | Glossary On
Versions: 1 2 3 4 5 6 7 8 9 10 11 12 13 14 15 16 17 18 19 20 21 22 23 24 25 26 27 28 29 30 31 32 33 34 35 36 37 38 39 40 41 42 43 44 45 46 47 48 49 50
000
ASUS45 KSLC 290410
RWRUT

UTAH REGIONAL WEATHER ROUNDUP
NATIONAL WEATHER SERVICE SALT LAKE CITY UT
1000 PM MDT THU AUG 28 2014

UTZ001>011-023>025-290500-

NORTHERN UTAH

CITY           SKY/WX    TMP DP  RH WIND       PRES   REMARKS
HILL AFB       CLEAR     69  42  37 E10       30.14S
LOGAN          CLEAR     68  50  52 SE9       30.10S
OGDEN          CLEAR     69  42  37 S9        30.11S
PROVO AIRPORT  CLEAR     66  52  59 S6        30.16R
SALT LAKE CITY PTCLDY    69  45  41 S6        30.10R
VERNAL         PTCLDY    63  53  70 NW3       30.17S
WENDOVER       CLEAR     75  36  23 W7        30.09S
HEBER CITY     CLEAR     55  48  76 SE3       30.21S
WEST JORDAN    CLEAR     70  50  49 E7        30.14R

$$

UTZ012>022-026-027-290500-

SOUTHERN UTAH

CITY           SKY/WX    TMP DP  RH WIND       PRES   REMARKS
BRYCE CANYON   CLEAR     55  40  56 CALM      30.36R
CEDAR CITY     CLEAR     69  33  26 E7        30.19R
MILFORD        CLEAR     67  41  38 SW3       30.15R
MOAB/CYNLANDS  CLEAR     71  46  40 CALM      30.11R
PRICE          PTCLDY    65  42  43 N3        30.22R
ST GEORGE      CLEAR     88  43  20 NW5       29.99R
KANAB            N/A     64  46  52 NE5       30.17R

$$

REGIONAL REPORTS     COLORADO/ARIZONA

CITY           SKY/WX    TMP DP  RH WIND       PRES   REMARKS
CRAIG, CO      CLEAR     56  49  77 SE3       30.22R
GRAND JUNCTION CLEAR     62  56  80 SE6       30.15R
RIFLE          CLEAR     59  52  77 S6        30.20R
MONTROSE       CLEAR     60  50  69 SE8       30.25R
CORTEZ         CLEAR     60  48  64 E7        30.24R
PAGE, AZ       CLEAR     79  40  24 S6        30.10R
GRAND CANYON     N/A    N/A N/A N/A MISG        N/A
KINGMAN        CLEAR     73  36  25 SE9       30.03R
FLAGSTAFF      CLEAR     57  42  57 CALM      30.31R

$$

REGIONAL REPORTS    NEVADA/IDAHO/WYOMING

CITY           SKY/WX    TMP DP  RH WIND       PRES   REMARKS
LAS VEGAS, NV  CLEAR     94  30  10 SW12      29.87R
ELY            CLEAR     60  34  37 S12       30.22R
ELKO           CLEAR     70  31  23 CALM      30.11R
POCATELLO, ID  CLEAR     70  41  34 S12       30.06S
BURLEY         CLEAR     65  52  62 CALM      30.04R
EVANSTON, WY   CLEAR     58  43  57 W10       30.30R
ROCK SPRINGS   CLEAR     62  42  47 W12       30.23R

$$


USA.gov is the U.S. government's official web portal to all federal, state and local government web resources and services.